Powrót do katalogu

SBSS

USA 216

AktywnyMilitariaSSO
NORAD 37168·PAYLOAD·🇺🇸 United States

Wystrzelony Sep 26, 2010 z Vandenberg Space Force Base

Loading…

Następne Przeloty (najbliższe 24 godziny)

TLE

ŚwieżeSource: Space-Track

Epoka: Sep 14, 2026, 04:48 UTC

1 37168U 10048A   26257.20064016  .00003068  00000-0  14666-3 0  9992
2 37168  97.7179 144.3616 0078191 256.0354 222.9936 15.17143789865966

Śledź SBSS w czasie rzeczywistym z AllMySat

Download on the App Store